This is the latest recevied weather packets stored in our database for station/object HB9HFD-13. If no packets are shown the sender has not sent any weather packets the latest 10 day(s).
| Time | Temp. | Humidity | Pressure | Rain* | Wind** | Luminosity | Snow |
|---|---|---|---|---|---|---|---|
| 1787677736 | 25° C | 68% | 1010.8 hPa | 0 mm | - | - | - |
| 1787677436 | 25.56° C | 66% | 1010.8 hPa | 0 mm | - | - | - |
| 1787677136 | 25.56° C | 65% | 1010.8 hPa | 0 mm | - | - | - |
| 1787676835 | 26.11° C | 63% | 1010.8 hPa | 0 mm | - | - | - |
| 1787676535 | 26.11° C | 62% | 1010.8 hPa | 0 mm | - | - | - |
| 1787676235 | 26.67° C | 61% | 1010.8 hPa | 0 mm | - | - | - |
| 1787675934 | 26.67° C | 58% | 1010.7 hPa | 0 mm | - | - | - |
| 1787675634 | 26.67° C | 58% | 1010.8 hPa | 0 mm | - | - | - |
| 1787675334 | 27.22° C | 59% | 1010.7 hPa | 0 mm | - | - | - |
| 1787674734 | 26.67° C | 49% | 1010.6 hPa | 0 mm | - | - | - |
| 1787674433 | 26.67° C | 48% | 1010.6 hPa | 0 mm | - | - | - |
| 1787674133 | 26.11° C | 50% | 1010.8 hPa | 0 mm | - | - | - |
| 1787673833 | 26.11° C | 49% | 1010.7 hPa | 0 mm | - | - | - |
| 1787673532 | 26.11° C | 49% | 1010.7 hPa | 0 mm | - | - | - |
| 1787673232 | 26.67° C | 49% | 1010.6 hPa | 0 mm | - | - | - |
| 1787672932 | 26.67° C | 49% | 1010.7 hPa | 0 mm | - | - | - |
| 1787672632 | 26.67° C | 49% | 1010.7 hPa | 0 mm | - | - | - |
| 1787672331 | 26.67° C | 48% | 1010.6 hPa | 0 mm | - | - | - |
| 1787672031 | 26.67° C | 48% | 1010.6 hPa | 0 mm | - | - | - |
| 1787671731 | 27.22° C | 50% | 1010.6 hPa | 0 mm | - | - | - |
| 1787671431 | 26.67° C | 49% | 1010.9 hPa | 0 mm | - | - | - |
| 1787671130 | 26.67° C | 47% | 1010.9 hPa | 0 mm | - | - | - |
| 1787670830 | 26.67° C | 46% | 1010.8 hPa | 0 mm | - | - | - |
| 1787670530 | 26.67° C | 46% | 1010.8 hPa | 0 mm | - | - | - |
| 1787670229 | 27.22° C | 46% | 1010.9 hPa | 0 mm | - | - | - |
* Rain latest hour (hover to see other rain measurements)
** Current wind speed in m/s (hover to see current wind gust speed)